This is the latest recevied weather packets stored in our database for station/object K6CEG. If no packets are shown the sender has not sent any weather packets the latest 10 day(s).
| Time | Temp. | Humidity | Pressure | Rain* | Wind** | Luminosity | Snow |
|---|---|---|---|---|---|---|---|
| 1788202255 | 29.44° C | 49% | 1015.7 hPa | 0 mm | - | 719 W/m² | - |
| 1788201954 | 28.89° C | 51% | 1015.7 hPa | 0 mm | - | 693 W/m² | - |
| 1788201649 | 28.89° C | 51% | 1015.8 hPa | 0 mm | - | 695 W/m² | - |
| 1788201349 | 28.89° C | 51% | 1015.8 hPa | 0 mm | - | 722 W/m² | - |
| 1788201049 | 28.89° C | 51% | 1015.7 hPa | 0 mm | - | 763 W/m² | - |
| 1788200749 | 28.89° C | 51% | 1016 hPa | 0 mm | - | 763 W/m² | - |
| 1788200445 | 28.33° C | 52% | 1016 hPa | 0 mm | - | 775 W/m² | - |
| 1788200144 | 27.78° C | 54% | 1016 hPa | 0 mm | - | 776 W/m² | - |
| 1788199844 | 28.89° C | 52% | 1016.2 hPa | 0 mm | - | 772 W/m² | - |
| 1788199539 | 27.78° C | 52% | 1015.9 hPa | 0 mm | - | 780 W/m² | - |
| 1788199234 | 27.22° C | 55% | 1015.9 hPa | 0 mm | - | 768 W/m² | - |
| 1788198930 | 28.33° C | 53% | 1015.9 hPa | 0 mm | - | 729 W/m² | - |
| 1788198626 | 27.78° C | 54% | 1015.9 hPa | 0 mm | - | 708 W/m² | - |
| 1788198321 | 27.78° C | 55% | 1016.1 hPa | 0 mm | - | 698 W/m² | - |
| 1788198021 | 28.33° C | 54% | 1016.2 hPa | 0 mm | - | 709 W/m² | - |
| 1788197719 | 27.78° C | 54% | 1016.1 hPa | 0 mm | - | 724 W/m² | - |
| 1788197416 | 27.78° C | 54% | 1016.2 hPa | 0 mm | - | 698 W/m² | - |
| 1788197110 | 27.78° C | 55% | 1016.1 hPa | 0 mm | - | 667 W/m² | - |
| 1788196805 | 27.22° C | 56% | 1015.9 hPa | 0 mm | - | 642 W/m² | - |
| 1788196501 | 26.67° C | 57% | 1015.9 hPa | 0 mm | - | 626 W/m² | - |
| 1788196198 | 26.67° C | 57% | 1016.2 hPa | 0 mm | - | 595 W/m² | - |
| 1788195894 | 26.67° C | 58% | 1016.2 hPa | 0 mm | - | 586 W/m² | - |
| 1788195591 | 26.67° C | 57% | 1016 hPa | 0 mm | - | 569 W/m² | - |
| 1788195286 | 26.67° C | 57% | 1016.1 hPa | 0 mm | - | 540 W/m² | - |
| 1788194983 | 26.11° C | 58% | 1016 hPa | 0 mm | - | 510 W/m² | - |
* Rain latest hour (hover to see other rain measurements)
** Current wind speed in m/s (hover to see current wind gust speed)